| time (UTC) | temp F | wind direction | speed MPH | gust MPH | rain 1hr in | rain 24hr in | rain mn in | humidity % | barometer mb |
| 20260906191212 | 71 | 112 | 1.0 | 2.0 | 0.00 | 0.20 | 0.20 | 56 | 1015.5 |
| 20260906190709 | 71 | 112 | 0.0 | 2.0 | 0.00 | 0.20 | 0.20 | 51 | 1015.5 |
| 20260906190211 | 70 | 112 | 0.0 | 2.0 | 0.00 | 0.20 | 0.20 | 52 | 1015.6 |
| 20260906190005 | 70 | 112 | 0.0 | 2.0 | 0.00 | 0.20 | 0.01 | 50 | 1015.5 |
| 20260906185710 | 70 | 112 | 0.0 | 2.0 | 0.00 | 0.20 | 0.20 | 54 | 1015.6 |
| 20260906184710 | 69 | 112 | 1.0 | 3.0 | 0.00 | 0.20 | 0.20 | 53 | 1015.7 |
| 20260906184605 | 69 | 112 | 0.0 | 3.0 | 0.00 | 0.20 | 0.01 | 48 | 1015.6 |
| 20260906184210 | 70 | 112 | 1.0 | 3.0 | 0.00 | 0.20 | 0.20 | 49 | 1015.8 |
| 20260906183209 | 70 | 112 | 1.0 | 3.0 | 0.00 | 0.20 | 0.20 | 55 | 1015.9 |
| 20260906183142 | 69 | 112 | 0.0 | 3.0 | 0.00 | 0.20 | 0.01 | 55 | 1015.8 |
| 20260906182711 | 69 | 112 | 1.0 | 3.0 | 0.00 | 0.20 | 0.20 | 53 | 1015.9 |
| 20260906182209 | 69 | 112 | 1.0 | 4.0 | 0.00 | 0.20 | 0.20 | 52 | 1015.9 |
| 20260906181543 | 69 | 112 | 1.0 | 4.0 | 0.01 | 0.20 | 0.01 | 52 | 1015.8 |
| 20260906181209 | 69 | 112 | 0.0 | 4.0 | 0.01 | 0.20 | 0.20 | 57 | 1016.0 |
| 20260906180709 | 69 | 112 | 0.0 | 3.0 | 0.01 | 0.20 | 0.20 | 57 | 1016.0 |
| 20260906180207 | 69 | 112 | 1.0 | 3.0 | 0.01 | 0.20 | 0.20 | 54 | 1016.0 |
| 20260906180141 | 68 | 112 | 0.0 | 3.0 | 0.01 | 0.20 | 0.01 | 57 | 1015.9 |
| 20260906175709 | 69 | 112 | 1.0 | 3.0 | 0.01 | 0.20 | 0.20 | 52 | 1016.0 |
| 20260906175203 | 69 | 112 | 1.0 | 2.0 | 0.01 | 0.20 | 0.20 | 54 | 1016.1 |
| 20260906174704 | 68 | 112 | 1.0 | 5.0 | 0.01 | 0.20 | 0.20 | 60 | 1016.2 |
| 20260906174540 | 68 | 112 | 0.0 | 5.0 | 0.01 | 0.20 | 0.01 | 60 | 1016.1 |
| 20260906174202 | 68 | 112 | 1.0 | 5.0 | 0.01 | 0.20 | 0.20 | 54 | 1016.1 |
| 20260906173702 | 69 | 112 | 1.0 | 3.0 | 0.01 | 0.20 | 0.20 | 55 | 1016.1 |
| 20260906173201 | 69 | 112 | 1.0 | 5.0 | 0.01 | 0.20 | 0.20 | 59 | 1016.1 |
| 20260906173136 | 68 | 112 | 0.0 | 5.0 | 0.01 | 0.20 | 0.01 | 59 | 1016.0 |
| 20260906172702 | 69 | 112 | 0.0 | 5.0 | 0.01 | 0.20 | 0.20 | 56 | 1015.9 |
| 20260906172203 | 69 | 112 | 0.0 | 2.0 | 0.01 | 0.20 | 0.20 | 53 | 1015.9 |
| 20260906171702 | 68 | 265 | 0.0 | 2.0 | 0.00 | 0.19 | 0.19 | 64 | 1016.2 |
| 20260906171537 | 68 | 271 | 0.0 | 2.0 | 0.00 | 0.19 | 0.00 | 56 | 1016.1 |
| 20260906171202 | 68 | 272 | 0.0 | 2.0 | 0.00 | 0.19 | 0.19 | 55 | 1016.1 |
| 20260906170702 | 68 | 272 | 0.0 | 2.0 | 0.00 | 0.19 | 0.19 | 63 | 1016.1 |
| 20260906170202 | 68 | 272 | 0.0 | 2.0 | 0.00 | 0.19 | 0.19 | 55 | 1016.2 |
| 20260906170133 | 68 | 272 | 0.0 | 2.0 | 0.00 | 0.19 | 0.00 | 55 | 1016.2 |
| 20260906165203 | 68 | 270 | 0.0 | 1.0 | 0.00 | 0.19 | 0.19 | 59 | 1016.4 |
| 20260906164702 | 68 | 270 | 0.0 | 2.0 | 0.00 | 0.19 | 0.19 | 65 | 1016.5 |
| 20260906164539 | 67 | 270 | 0.0 | 2.0 | 0.00 | 0.19 | 0.00 | 66 | 1016.4 |
| 20260906164201 | 68 | 270 | 0.0 | 2.0 | 0.00 | 0.19 | 0.19 | 63 | 1016.4 |
| 20260906163702 | 67 | 270 | 0.0 | 2.0 | 0.00 | 0.19 | 0.19 | 64 | 1016.5 |
| 20260906163201 | 67 | 270 | 1.0 | 2.0 | 0.00 | 0.19 | 0.19 | 65 | 1016.6 |
| 20260906163130 | 67 | 270 | 0.0 | 2.0 | 0.00 | 0.19 | 0.00 | 65 | 1016.6 |
| 20260906162700 | 67 | 270 | 1.0 | 3.0 | 0.00 | 0.19 | 0.19 | 66 | 1016.7 |
| 20260906162203 | 67 | 270 | 0.0 | 3.0 | 0.00 | 0.19 | 0.19 | 63 | 1016.7 |
| 20260906161702 | 67 | 270 | 0.0 | 1.0 | 0.00 | 0.19 | 0.19 | 63 | 1016.7 |
| 20260906161525 | 66 | 270 | 0.0 | 1.0 | 0.00 | 0.19 | 0.00 | 66 | 1016.8 |
| 20260906161201 | 67 | 270 | 0.0 | 3.0 | 0.00 | 0.19 | 0.19 | 64 | 1016.8 |
| 20260906160701 | 66 | 270 | 0.0 | 3.0 | 0.00 | 0.19 | 0.19 | 67 | 1016.8 |
| 20260906160203 | 66 | 270 | 0.0 | 2.0 | 0.00 | 0.19 | 0.19 | 64 | 1016.9 |
| 20260906160121 | 66 | 270 | 0.0 | 1.0 | 0.00 | 0.19 | 0.00 | 64 | 1016.9 |
| 20260906155700 | 65 | 270 | 0.0 | 3.0 | 0.00 | 0.19 | 0.19 | 72 | 1016.9 |
| 20260906155201 | 65 | 270 | 0.0 | 3.0 | 0.00 | 0.19 | 0.19 | 74 | 1017.0 |
| 20260906154702 | 64 | 270 | 0.0 | 2.0 | 0.00 | 0.19 | 0.19 | 72 | 1017.1 |
| 20260906154513 | 63 | 270 | 0.0 | 2.0 | 0.00 | 0.19 | 0.00 | 74 | 1017.0 |
| 20260906153702 | 63 | 270 | 0.0 | 1.0 | 0.00 | 0.19 | 0.19 | 73 | 1017.2 |
| 20260906153111 | 63 | 270 | 0.0 | 1.0 | 0.00 | 0.19 | 0.00 | 75 | 1017.2 |
| 20260906151643 | 62 | 270 | 1.0 | 2.0 | 0.00 | 0.19 | 0.19 | 77 | 1017.4 |
| 20260906151502 | 62 | 270 | 0.0 | 2.0 | 0.00 | 0.19 | 0.00 | 79 | 1017.4 |
| 20260906151145 | 62 | 270 | 1.0 | 2.0 | 0.00 | 0.19 | 0.19 | 84 | 1017.4 |
| 20260906150645 | 61 | 270 | 1.0 | 2.0 | 0.00 | 0.19 | 0.19 | 86 | 1017.4 |
| 20260906150106 | 60 | 270 | 0.0 | 2.0 | 0.00 | 0.19 | 0.00 | 84 | 1017.4 |
| 20260906145645 | 61 | 270 | 0.0 | 1.0 | 0.00 | 0.19 | 0.19 | 85 | 1017.5 |
| 20260906145141 | 61 | 270 | 0.0 | 1.0 | 0.00 | 0.19 | 0.19 | 85 | 1017.5 |
| 20260906144503 | 59 | 270 | 0.0 | 1.0 | 0.00 | 0.19 | 0.00 | 84 | 1017.5 |
| 20260906144137 | 59 | 270 | 0.0 | 1.0 | 0.00 | 0.19 | 0.19 | 87 | 1017.5 |
| 20260906143636 | 60 | 270 | 0.0 | 2.0 | 0.00 | 0.19 | 0.19 | 88 | 1017.4 |
| 20260906143135 | 60 | 270 | 1.0 | 2.0 | 0.00 | 0.19 | 0.19 | 90 | 1017.5 |
| 20260906143104 | 59 | 270 | 0.0 | 2.0 | 0.00 | 0.19 | 0.00 | 90 | 1017.5 |
| 20260906142133 | 58 | 270 | 1.0 | 1.0 | 0.00 | 0.19 | 0.19 | 88 | 1017.5 |
| 20260906141629 | 58 | 270 | 1.0 | 2.0 | 0.00 | 0.19 | 0.19 | 87 | 1017.4 |
| 20260906141501 | 58 | 270 | 0.0 | 2.0 | 0.00 | 0.19 | 0.00 | 85 | 1017.4 |
| 20260906141129 | 59 | 270 | 1.0 | 2.0 | 0.00 | 0.19 | 0.19 | 88 | 1017.4 |
| 20260906140630 | 60 | 270 | 0.0 | 2.0 | 0.00 | 0.19 | 0.19 | 85 | 1017.5 |
| 20260906140128 | 60 | 270 | 0.0 | 2.0 | 0.00 | 0.19 | 0.19 | 88 | 1017.5 |
| 20260906140110 | 59 | 270 | 0.0 | 2.0 | 0.00 | 0.19 | 0.00 | 88 | 1017.5 |
| 20260906135629 | 59 | 270 | 0.0 | 2.0 | 0.00 | 0.19 | 0.19 | 90 | 1017.7 |
| 20260906134629 | 59 | 270 | 0.0 | 0.0 | 0.00 | 0.19 | 0.19 | 86 | 1017.7 |
| 20260906133630 | 59 | 270 | 0.0 | 1.0 | 0.00 | 0.19 | 0.19 | 87 | 1017.8 |
| 20260906133129 | 59 | 270 | 0.0 | 1.0 | 0.00 | 0.19 | 0.19 | 87 | 1017.8 |
| 20260906133044 | 59 | 270 | 0.0 | 1.0 | 0.00 | 0.19 | 0.00 | 88 | 1017.7 |
| 20260906132630 | 59 | 270 | 0.0 | 1.0 | 0.00 | 0.19 | 0.19 | 88 | 1017.9 |
| 20260906132131 | 58 | 270 | 0.0 | 1.0 | 0.00 | 0.19 | 0.19 | 91 | 1017.9 |
| 20260906131641 | 57 | 270 | 0.0 | 1.0 | 0.00 | 0.19 | 0.00 | 92 | 1017.7 |
| 20260906131630 | 58 | 270 | 0.0 | 1.0 | 0.00 | 0.19 | 0.19 | 92 | 1017.8 |
| 20260906131129 | 57 | 270 | 0.0 | 1.0 | 0.00 | 0.19 | 0.19 | 93 | 1017.9 |
| 20260906130629 | 57 | 270 | 0.0 | 0.0 | 0.00 | 0.19 | 0.19 | 94 | 1017.9 |
| 20260906130129 | 56 | 270 | 0.0 | 1.0 | 0.00 | 0.19 | 0.19 | 95 | 1018.0 |
| 20260906130045 | 56 | 270 | 0.0 | 1.0 | 0.00 | 0.19 | 0.00 | 95 | 1017.8 |
| 20260906125628 | 56 | 270 | 0.0 | 1.0 | 0.00 | 0.19 | 0.19 | 95 | 1018.0 |
| 20260906125129 | 55 | 270 | 0.0 | 0.0 | 0.00 | 0.19 | 0.19 | 97 | 1017.8 |
| 20260906124634 | 55 | 270 | 0.0 | 0.0 | 0.00 | 0.19 | 0.19 | 96 | 1017.9 |
| 20260906124629 | 54 | 270 | 0.0 | 0.0 | 0.00 | 0.19 | 0.00 | 96 | 1017.8 |
| 20260906124130 | 55 | 270 | 0.0 | 1.0 | 0.00 | 0.19 | 0.19 | 97 | 1017.8 |
| 20260906123629 | 54 | 270 | 0.0 | 1.0 | 0.00 | 0.19 | 0.19 | 97 | 1017.8 |
| 20260906123128 | 54 | 270 | 0.0 | 0.0 | 0.00 | 0.19 | 0.19 | 97 | 1017.8 |
| 20260906123021 | 54 | 270 | 0.0 | 0.0 | 0.00 | 0.19 | 0.00 | 97 | 1017.7 |
| 20260906122630 | 54 | 270 | 0.0 | 0.0 | 0.00 | 0.19 | 0.19 | 97 | 1017.7 |
| 20260906122130 | 55 | 270 | 0.0 | 0.0 | 0.00 | 0.19 | 0.19 | 97 | 1017.5 |
| 20260906121613 | 54 | 270 | 0.0 | 0.0 | 0.00 | 0.19 | 0.00 | 97 | 1017.4 |
| 20260906120629 | 55 | 270 | 0.0 | 0.0 | 0.00 | 0.19 | 0.19 | 97 | 1017.4 |
| 20260906120004 | 54 | 270 | 0.0 | 0.0 | 0.00 | 0.19 | 0.00 | 97 | 1017.4 |
| 20260906115630 | 55 | 270 | 0.0 | 0.0 | 0.00 | 0.19 | 0.19 | 97 | 1017.4 |
| 20260906115130 | 55 | 270 | 0.0 | 0.0 | 0.00 | 0.19 | 0.19 | 97 | 1017.4 |
| 20260906114629 | 55 | 270 | 0.0 | 0.0 | 0.00 | 0.19 | 0.19 | 97 | 1017.3 |
| 20260906114604 | 55 | 270 | 0.0 | 0.0 | 0.00 | 0.19 | 0.00 | 97 | 1017.3 |
| 20260906114130 | 55 | 270 | 0.0 | 0.0 | 0.00 | 0.19 | 0.19 | 97 | 1017.3 |
| 20260906113629 | 55 | 270 | 0.0 | 0.0 | 0.00 | 0.19 | 0.19 | 97 | 1017.2 |
| 20260906113002 | 55 | 270 | 0.0 | 0.0 | 0.00 | 0.19 | 0.00 | 97 | 1017.1 |
| 20260906112629 | 55 | 270 | 0.0 | 0.0 | 0.00 | 0.19 | 0.19 | 97 | 1017.0 |
| 20260906112129 | 55 | 270 | 0.0 | 0.0 | 0.00 | 0.19 | 0.19 | 97 | 1016.9 |
| 20260906111630 | 55 | 270 | 0.0 | 0.0 | 0.00 | 0.19 | 0.19 | 97 | 1016.9 |
| 20260906111553 | 54 | 270 | 0.0 | 0.0 | 0.00 | 0.19 | 0.00 | 97 | 1016.9 |
| 20260906111129 | 55 | 270 | 0.0 | 0.0 | 0.00 | 0.19 | 0.19 | 97 | 1016.8 |
| 20260906110145 | 54 | 270 | 0.0 | 0.0 | 0.00 | 0.19 | 0.19 | 97 | 1016.7 |
| 20260906110130 | 55 | 270 | 0.0 | 0.0 | 0.00 | 0.19 | 0.19 | 97 | 1016.7 |
| 20260906105629 | 55 | 270 | 0.0 | 0.0 | 0.00 | 0.19 | 0.19 | 97 | 1016.7 |
| 20260906105130 | 54 | 270 | 0.0 | 0.0 | 0.00 | 0.19 | 0.19 | 97 | 1016.6 |
| 20260906104630 | 54 | 270 | 0.0 | 0.0 | 0.00 | 0.19 | 0.19 | 97 | 1016.6 |
| 20260906104602 | 54 | 270 | 0.0 | 0.0 | 0.00 | 0.19 | 0.19 | 97 | 1016.6 |
| 20260906104129 | 54 | 270 | 0.0 | 0.0 | 0.00 | 0.19 | 0.19 | 97 | 1016.7 |
| 20260906103630 | 54 | 270 | 0.0 | 0.0 | 0.01 | 0.19 | 0.19 | 97 | 1016.4 |
| 20260906103137 | 54 | 270 | 0.0 | 0.0 | 0.02 | 0.19 | 0.19 | 97 | 1016.3 |
| 20260906103129 | 54 | 270 | 0.0 | 0.0 | 0.02 | 0.19 | 0.19 | 97 | 1016.4 |
| 20260906102630 | 54 | 270 | 0.0 | 0.0 | 0.03 | 0.19 | 0.19 | 97 | 1016.4 |
| 20260906102130 | 54 | 270 | 0.0 | 0.0 | 0.03 | 0.19 | 0.19 | 97 | 1016.4 |
| 20260906101532 | 54 | 270 | 0.0 | 0.0 | 0.03 | 0.19 | 0.19 | 97 | 1016.3 |
| 20260906101129 | 55 | 270 | 0.0 | 0.0 | 0.03 | 0.19 | 0.19 | 97 | 1016.3 |
| 20260906100629 | 54 | 270 | 0.0 | 0.0 | 0.03 | 0.19 | 0.19 | 97 | 1016.3 |
| 20260906100138 | 54 | 270 | 0.0 | 0.0 | 0.04 | 0.19 | 0.19 | 97 | 1016.3 |
| 20260906100128 | 54 | 270 | 0.0 | 0.0 | 0.04 | 0.19 | 0.19 | 97 | 1016.3 |
| 20260906095630 | 54 | 270 | 0.0 | 0.0 | 0.04 | 0.19 | 0.19 | 97 | 1016.3 |
| 20260906095130 | 55 | 270 | 0.0 | 0.0 | 0.05 | 0.19 | 0.19 | 97 | 1016.3 |
| 20260906094630 | 55 | 270 | 0.0 | 1.0 | 0.06 | 0.19 | 0.19 | 97 | 1016.2 |
| 20260906094530 | 54 | 270 | 0.0 | 1.0 | 0.06 | 0.19 | 0.19 | 97 | 1016.2 |
| 20260906094131 | 55 | 270 | 0.0 | 1.0 | 0.06 | 0.19 | 0.19 | 97 | 1016.2 |
| 20260906093630 | 55 | 270 | 0.0 | 0.0 | 0.06 | 0.18 | 0.18 | 97 | 1016.3 |
| 20260906093129 | 55 | 270 | 0.0 | 0.0 | 0.06 | 0.17 | 0.17 | 97 | 1016.2 |
| 20260906093111 | 54 | 270 | 0.0 | 0.0 | 0.06 | 0.17 | 0.17 | 97 | 1016.2 |
| 20260906092130 | 54 | 270 | 0.0 | 0.0 | 0.09 | 0.16 | 0.16 | 97 | 1016.1 |
| 20260906091630 | 54 | 270 | 0.0 | 0.0 | 0.10 | 0.16 | 0.16 | 97 | 1016.0 |
| 20260906091501 | 54 | 270 | 0.0 | 0.0 | 0.10 | 0.16 | 0.16 | 97 | 1016.0 |
| 20260906091129 | 54 | 270 | 0.0 | 0.0 | 0.11 | 0.16 | 0.16 | 97 | 1016.0 |
| 20260906090630 | 54 | 270 | 0.0 | 0.0 | 0.12 | 0.16 | 0.15 | 97 | 1016.1 |
| 20260906090129 | 54 | 270 | 0.0 | 0.0 | 0.12 | 0.15 | 0.15 | 97 | 1016.1 |
| 20260906090055 | 54 | 270 | 0.0 | 0.0 | 0.12 | 0.15 | 0.15 | 97 | 1016.0 |
| 20260906085630 | 54 | 270 | 0.0 | 0.0 | 0.12 | 0.15 | 0.15 | 97 | 1016.0 |
| 20260906085131 | 54 | 270 | 0.0 | 0.0 | 0.11 | 0.14 | 0.14 | 97 | 1016.0 |
| 20260906084642 | 54 | 270 | 0.0 | 1.0 | 0.10 | 0.13 | 0.13 | 97 | 1015.8 |
| 20260906084630 | 54 | 270 | 0.0 | 1.0 | 0.11 | 0.13 | 0.13 | 97 | 1016.0 |
| 20260906084130 | 54 | 270 | 0.0 | 1.0 | 0.11 | 0.13 | 0.13 | 97 | 1016.0 |
| 20260906083630 | 54 | 270 | 0.0 | 1.0 | 0.10 | 0.12 | 0.12 | 97 | 1015.9 |
| 20260906083130 | 54 | 270 | 0.0 | 1.0 | 0.09 | 0.11 | 0.11 | 97 | 1016.0 |
| 20260906083038 | 53 | 270 | 0.0 | 1.0 | 0.10 | 0.11 | 0.11 | 97 | 1015.8 |
| 20260906082628 | 54 | 270 | 0.0 | 0.0 | 0.09 | 0.10 | 0.09 | 97 | 1015.9 |
| 20260906081130 | 54 | 270 | 0.0 | 1.0 | 0.05 | 0.05 | 0.04 | 97 | 1015.9 |
| 20260906080628 | 54 | 270 | 0.0 | 1.0 | 0.04 | 0.04 | 0.04 | 97 | 1015.9 |
| 20260906080129 | 54 | 270 | 0.0 | 0.0 | 0.03 | 0.03 | 0.03 | 97 | 1015.8 |
| 20260906080029 | 53 | 270 | 0.0 | 0.0 | 0.03 | 0.03 | 0.03 | 97 | 1015.7 |
| 20260906075631 | 54 | 270 | 0.0 | 0.0 | 0.03 | 0.03 | 0.03 | 97 | 1015.7 |
| 20260906075128 | 53 | 270 | 0.0 | 0.0 | 0.03 | 0.03 | 0.03 | 97 | 1015.8 |
| 20260906074622 | 53 | 270 | 0.0 | 0.0 | 0.02 | 0.02 | 0.02 | 97 | 1015.6 |
| 20260906074127 | 53 | 270 | 0.0 | 0.0 | 0.02 | 0.02 | 0.02 | 97 | 1015.8 |
| 20260906073625 | 53 | 270 | 0.0 | 0.0 | 0.02 | 0.02 | 0.02 | 96 | 1015.9 |
| 20260906073124 | 53 | 270 | 0.0 | 0.0 | 0.02 | 0.02 | 0.01 | 96 | 1015.8 |
| 20260906073006 | 53 | 270 | 0.0 | 0.0 | 0.01 | 0.01 | 0.01 | 96 | 1015.6 |
| 20260906072622 | 53 | 270 | 0.0 | 0.0 | 0.01 | 0.01 | 0.01 | 96 | 1015.8 |
| 20260906072120 | 53 | 270 | 0.0 | 0.0 | 0.01 | 0.01 | 0.01 | 96 | 1015.7 |
| 20260906071620 | 53 | 270 | 0.0 | 0.0 | 0.00 | 0.00 | 0.00 | 96 | 1015.7 |
| 20260906071604 | 53 | 270 | 0.0 | 0.0 | 0.00 | 0.00 | 0.00 | 96 | 1015.5 |
| 20260906071118 | 53 | 270 | 0.0 | 0.0 | 0.00 | 0.00 | 0.00 | 96 | 1015.5 |
| 20260906070617 | 53 | 270 | 0.0 | 0.0 | 0.00 | 0.00 | 0.00 | 96 | 1015.6 |
| 20260906070116 | 53 | 270 | 0.0 | 0.0 | 0.00 | 0.00 | 0.00 | 96 | 1015.6 |
| 20260906070002 | 53 | 270 | 0.0 | 0.0 | 0.00 | 0.00 | 0.00 | 96 | 1015.4 |
| 20260906065618 | 53 | 270 | 0.0 | 0.0 | 0.00 | 0.00 | 0.00 | 96 | 1015.6 |
| 20260906065112 | 53 | 270 | 0.0 | 0.0 | 0.00 | 0.00 | 0.00 | 96 | 1015.6 |
| 20260906064606 | 53 | 270 | 0.0 | 0.0 | 0.00 | 0.00 | 0.00 | 96 | 1015.5 |
| 20260906064603 | 53 | 270 | 0.0 | 0.0 | 0.00 | 0.00 | 0.00 | 96 | 1015.4 |
| 20260906064101 | 53 | 270 | 0.0 | 0.0 | 0.00 | 0.00 | 0.00 | 96 | 1015.5 |
| 20260906063601 | 53 | 270 | 0.0 | 0.0 | 0.00 | 0.00 | 0.00 | 96 | 1015.5 |
| 20260906063101 | 53 | 270 | 0.0 | 0.0 | 0.00 | 0.00 | 0.00 | 96 | 1015.5 |
| 20260906063006 | 53 | 270 | 0.0 | 0.0 | 0.00 | 0.00 | 0.00 | 96 | 1015.4 |
| 20260906062601 | 53 | 270 | 0.0 | 0.0 | 0.00 | 0.00 | 0.00 | 96 | 1015.5 |
| 20260906062101 | 53 | 270 | 0.0 | 0.0 | 0.00 | 0.00 | 0.00 | 96 | 1015.5 |
| 20260906061610 | 53 | 270 | 0.0 | 0.0 | 0.00 | 0.00 | 0.00 | 96 | 1015.3 |
| 20260906061602 | 53 | 270 | 0.0 | 0.0 | 0.00 | 0.00 | 0.00 | 96 | 1015.5 |
| 20260906061101 | 53 | 270 | 0.0 | 0.0 | 0.00 | 0.00 | 0.00 | 96 | 1015.5 |
| 20260906060603 | 53 | 270 | 0.0 | 0.0 | 0.00 | 0.00 | 0.00 | 96 | 1015.5 |
| 20260906060157 | 53 | 270 | 0.0 | 0.0 | 0.00 | 0.00 | 0.00 | 96 | 1015.3 |
| 20260906055601 | 53 | 270 | 0.0 | 0.0 | 0.00 | 0.00 | 0.00 | 96 | 1015.6 |
| 20260906055103 | 53 | 270 | 0.0 | 0.0 | 0.00 | 0.00 | 0.00 | 96 | 1015.6 |
| 20260906054556 | 53 | 270 | 0.0 | 0.0 | 0.00 | 0.00 | 0.00 | 96 | 1015.4 |
| 20260906054100 | 53 | 270 | 0.0 | 0.0 | 0.00 | 0.00 | 0.00 | 96 | 1015.5 |
| 20260906053154 | 53 | 270 | 0.0 | 0.0 | 0.00 | 0.00 | 0.00 | 96 | 1015.5 |
| 20260906053102 | 53 | 270 | 0.0 | 0.0 | 0.00 | 0.00 | 0.00 | 96 | 1015.7 |
| 20260906052601 | 53 | 270 | 0.0 | 0.0 | 0.00 | 0.00 | 0.00 | 96 | 1015.6 |
| 20260906052101 | 53 | 270 | 0.0 | 0.0 | 0.00 | 0.00 | 0.00 | 96 | 1015.7 |
| 20260906051602 | 53 | 270 | 0.0 | 0.0 | 0.00 | 0.00 | 0.00 | 96 | 1015.7 |
| 20260906051549 | 52 | 270 | 0.0 | 0.0 | 0.00 | 0.00 | 0.00 | 96 | 1015.5 |
| 20260906050603 | 53 | 270 | 0.0 | 0.0 | 0.00 | 0.00 | 0.00 | 96 | 1015.8 |
| 20260906050143 | 52 | 270 | 0.0 | 0.0 | 0.00 | 0.00 | 0.00 | 96 | 1015.6 |
| 20260906050100 | 53 | 270 | 0.0 | 0.0 | 0.00 | 0.00 | 0.00 | 96 | 1015.8 |
| 20260906045603 | 53 | 270 | 0.0 | 0.0 | 0.00 | 0.00 | 0.00 | 96 | 1015.8 |
| 20260906045101 | 53 | 270 | 0.0 | 0.0 | 0.00 | 0.00 | 0.00 | 96 | 1015.7 |
| 20260906044602 | 53 | 270 | 0.0 | 0.0 | 0.00 | 0.00 | 0.00 | 96 | 1015.8 |
| 20260906044545 | 53 | 270 | 0.0 | 0.0 | 0.00 | 0.00 | 0.00 | 96 | 1015.6 |
| 20260906044103 | 53 | 270 | 0.0 | 0.0 | 0.00 | 0.00 | 0.00 | 96 | 1015.7 |
| 20260906043601 | 54 | 270 | 0.0 | 0.0 | 0.00 | 0.00 | 0.00 | 96 | 1015.7 |
| 20260906043143 | 53 | 270 | 0.0 | 0.0 | 0.00 | 0.00 | 0.00 | 97 | 1015.6 |
| 20260906043101 | 54 | 270 | 0.0 | 0.0 | 0.00 | 0.00 | 0.00 | 97 | 1015.8 |
| 20260906042601 | 54 | 270 | 0.0 | 0.0 | 0.00 | 0.00 | 0.00 | 97 | 1015.8 |
| 20260906042102 | 54 | 270 | 0.0 | 0.0 | 0.00 | 0.00 | 0.00 | 97 | 1015.8 |
| 20260906041601 | 53 | 270 | 0.0 | 0.0 | 0.00 | 0.00 | 0.00 | 97 | 1015.8 |
| 20260906041541 | 53 | 270 | 0.0 | 0.0 | 0.00 | 0.00 | 0.00 | 97 | 1015.6 |
| 20260906041102 | 53 | 270 | 0.0 | 0.0 | 0.00 | 0.00 | 0.00 | 97 | 1015.9 |
| 20260906040601 | 53 | 270 | 0.0 | 0.0 | 0.00 | 0.00 | 0.00 | 96 | 1015.9 |
| 20260906035600 | 53 | 270 | 0.0 | 0.0 | 0.00 | 0.00 | 0.00 | 97 | 1015.9 |
| 20260906035101 | 53 | 270 | 0.0 | 0.0 | 0.00 | 0.00 | 0.00 | 96 | 1015.9 |
| 20260906034601 | 53 | 270 | 0.0 | 0.0 | 0.00 | 0.00 | 0.00 | 96 | 1015.9 |
| 20260906034532 | 53 | 270 | 0.0 | 0.0 | 0.00 | 0.00 | 0.00 | 96 | 1015.7 |
| 20260906034101 | 53 | 270 | 0.0 | 0.0 | 0.00 | 0.00 | 0.00 | 96 | 1016.0 |
| 20260906033131 | 53 | 270 | 0.0 | 0.0 | 0.00 | 0.00 | 0.00 | 96 | 1015.5 |
| 20260906033102 | 53 | 270 | 0.0 | 0.0 | 0.00 | 0.00 | 0.00 | 96 | 1015.7 |
| 20260906032601 | 53 | 270 | 0.0 | 0.0 | 0.00 | 0.00 | 0.00 | 95 | 1015.8 |
| 20260906032101 | 53 | 270 | 0.0 | 0.0 | 0.00 | 0.00 | 0.00 | 95 | 1015.7 |
| 20260906031602 | 54 | 270 | 0.0 | 0.0 | 0.00 | 0.00 | 0.00 | 95 | 1015.6 |
| 20260906031543 | 53 | 270 | 0.0 | 0.0 | 0.00 | 0.00 | 0.00 | 95 | 1015.5 |
| 20260906031102 | 54 | 270 | 0.0 | 0.0 | 0.00 | 0.00 | 0.00 | 96 | 1015.7 |
| 20260906025602 | 54 | 270 | 0.0 | 0.0 | 0.00 | 0.00 | 0.00 | 96 | 1015.7 |
| 20260906025103 | 54 | 270 | 0.0 | 0.0 | 0.00 | 0.00 | 0.00 | 96 | 1015.7 |
| 20260906024602 | 54 | 270 | 0.0 | 0.0 | 0.00 | 0.00 | 0.00 | 97 | 1015.7 |
| 20260906024508 | 54 | 270 | 0.0 | 0.0 | 0.00 | 0.00 | 0.00 | 97 | 1015.5 |
| 20260906024102 | 54 | 270 | 0.0 | 0.0 | 0.00 | 0.00 | 0.00 | 96 | 1015.7 |
| 20260906023601 | 54 | 270 | 0.0 | 0.0 | 0.00 | 0.00 | 0.00 | 96 | 1015.7 |
| 20260906023108 | 53 | 270 | 0.0 | 0.0 | 0.00 | 0.00 | 0.00 | 96 | 1015.4 |
| 20260906023102 | 54 | 270 | 0.0 | 0.0 | 0.00 | 0.00 | 0.00 | 96 | 1015.6 |
| 20260906022603 | 54 | 270 | 0.0 | 0.0 | 0.00 | 0.00 | 0.00 | 96 | 1015.5 |
| 20260906022103 | 54 | 270 | 0.0 | 0.0 | 0.00 | 0.00 | 0.00 | 95 | 1015.4 |
| 20260906021659 | 53 | 270 | 0.0 | 0.0 | 0.00 | 0.00 | 0.00 | 95 | 1015.2 |
| 20260906021601 | 54 | 270 | 0.0 | 0.0 | 0.00 | 0.00 | 0.00 | 95 | 1015.5 |
| 20260906021102 | 54 | 270 | 0.0 | 0.0 | 0.00 | 0.00 | 0.00 | 95 | 1015.4 |
| 20260906020602 | 54 | 270 | 0.0 | 0.0 | 0.00 | 0.00 | 0.00 | 95 | 1015.4 |
| 20260906020059 | 54 | 270 | 0.0 | 0.0 | 0.00 | 0.00 | 0.00 | 95 | 1015.1 |
| 20260906015601 | 54 | 270 | 0.0 | 0.0 | 0.00 | 0.00 | 0.00 | 95 | 1015.3 |
| 20260906015102 | 55 | 270 | 0.0 | 0.0 | 0.00 | 0.00 | 0.00 | 95 | 1015.4 |
| 20260906014643 | 54 | 270 | 0.0 | 0.0 | 0.00 | 0.00 | 0.00 | 95 | 1015.1 |
| 20260906014603 | 55 | 270 | 0.0 | 0.0 | 0.00 | 0.00 | 0.00 | 95 | 1015.4 |
| 20260906014101 | 55 | 270 | 0.0 | 0.0 | 0.00 | 0.00 | 0.00 | 95 | 1015.4 |
| 20260906013101 | 54 | 270 | 0.0 | 0.0 | 0.00 | 0.00 | 0.00 | 95 | 1015.4 |
| 20260906013033 | 54 | 270 | 0.0 | 0.0 | 0.00 | 0.00 | 0.00 | 95 | 1015.1 |
| 20260906012602 | 55 | 270 | 0.0 | 0.0 | 0.00 | 0.00 | 0.00 | 94 | 1015.3 |
| 20260906011631 | 54 | 270 | 0.0 | 0.0 | 0.00 | 0.00 | 0.00 | 94 | 1015.1 |
| 20260906011601 | 55 | 270 | 0.0 | 0.0 | 0.00 | 0.00 | 0.00 | 94 | 1015.4 |
| 20260906011102 | 55 | 270 | 0.0 | 0.0 | 0.00 | 0.00 | 0.00 | 94 | 1015.3 |
| 20260906010022 | 55 | 270 | 0.0 | 0.0 | 0.00 | 0.00 | 0.00 | 94 | 1015.0 |
| 20260906004610 | 55 | 270 | 0.0 | 0.0 | 0.00 | 0.00 | 0.00 | 93 | 1014.9 |
| 20260906004602 | 55 | 270 | 0.0 | 0.0 | 0.00 | 0.00 | 0.00 | 93 | 1015.2 |
| 20260906004102 | 56 | 270 | 0.0 | 0.0 | 0.00 | 0.00 | 0.00 | 93 | 1015.1 |
| 20260906003605 | 56 | 270 | 0.0 | 0.0 | 0.00 | 0.00 | 0.00 | 93 | 1015.1 |
| 20260906003102 | 56 | 270 | 0.0 | 0.0 | 0.00 | 0.00 | 0.00 | 92 | 1015.1 |
| 20260906002604 | 56 | 270 | 0.0 | 0.0 | 0.00 | 0.00 | 0.00 | 92 | 1015.0 |
| 20260906002102 | 57 | 270 | 0.0 | 0.0 | 0.00 | 0.00 | 0.00 | 92 | 1015.0 |
| 20260906001604 | 56 | 270 | 0.0 | 0.0 | 0.00 | 0.00 | 0.00 | 91 | 1014.6 |
| 20260906001102 | 57 | 270 | 0.0 | 0.0 | 0.00 | 0.00 | 0.00 | 91 | 1015.0 |
| 20260906000602 | 57 | 270 | 0.0 | 0.0 | 0.00 | 0.00 | 0.00 | 91 | 1015.0 |
| 20260906000136 | 57 | 270 | 0.0 | 0.0 | 0.00 | 0.00 | 0.00 | 91 | 1014.8 |
| 20260905235601 | 58 | 270 | 0.0 | 0.0 | 0.00 | 0.00 | 0.00 | 91 | 1015.1 |
| 20260905235102 | 58 | 270 | 0.0 | 0.0 | 0.00 | 0.00 | 0.00 | 91 | 1015.1 |
| 20260905234602 | 58 | 270 | 0.0 | 0.0 | 0.00 | 0.00 | 0.00 | 90 | 1015.1 |
| 20260905234530 | 58 | 270 | 0.0 | 0.0 | 0.00 | 0.00 | 0.00 | 90 | 1014.7 |
| 20260905234102 | 58 | 270 | 0.0 | 0.0 | 0.00 | 0.00 | 0.00 | 90 | 1015.1 |
| 20260905233603 | 59 | 270 | 0.0 | 0.0 | 0.00 | 0.00 | 0.00 | 89 | 1015.0 |
| 20260905233130 | 58 | 270 | 0.0 | 0.0 | 0.00 | 0.00 | 0.00 | 89 | 1014.6 |
| 20260905233102 | 59 | 270 | 0.0 | 0.0 | 0.00 | 0.00 | 0.00 | 89 | 1014.9 |
| 20260905232102 | 59 | 270 | 0.0 | 0.0 | 0.00 | 0.00 | 0.00 | 89 | 1014.9 |
| 20260905231601 | 60 | 270 | 0.0 | 0.0 | 0.00 | 0.00 | 0.00 | 90 | 1014.9 |
| 20260905231532 | 59 | 270 | 0.0 | 0.0 | 0.00 | 0.00 | 0.00 | 90 | 1014.5 |
| 20260905231102 | 60 | 270 | 0.0 | 0.0 | 0.00 | 0.00 | 0.00 | 88 | 1014.9 |
| 20260905230601 | 60 | 270 | 0.0 | 0.0 | 0.00 | 0.00 | 0.00 | 88 | 1014.8 |
| 20260905230133 | 60 | 270 | 0.0 | 0.0 | 0.00 | 0.00 | 0.00 | 88 | 1014.4 |
| 20260905225601 | 60 | 270 | 0.0 | 0.0 | 0.00 | 0.00 | 0.00 | 88 | 1014.6 |
| 20260905225102 | 60 | 270 | 0.0 | 0.0 | 0.00 | 0.00 | 0.00 | 88 | 1014.7 |
| 20260905224601 | 60 | 270 | 0.0 | 0.0 | 0.00 | 0.00 | 0.00 | 86 | 1014.6 |
| 20260905224529 | 60 | 270 | 0.0 | 0.0 | 0.00 | 0.00 | 0.00 | 86 | 1014.3 |
| 20260905224101 | 61 | 270 | 0.0 | 0.0 | 0.00 | 0.00 | 0.00 | 86 | 1014.5 |
| 20260905223602 | 61 | 270 | 0.0 | 0.0 | 0.00 | 0.00 | 0.00 | 86 | 1014.6 |
| 20260905223124 | 61 | 270 | 0.0 | 0.0 | 0.00 | 0.00 | 0.00 | 87 | 1014.1 |
| 20260905223101 | 61 | 270 | 0.0 | 0.0 | 0.00 | 0.00 | 0.00 | 87 | 1014.4 |
| 20260905222603 | 62 | 270 | 0.0 | 0.0 | 0.00 | 0.00 | 0.00 | 86 | 1014.5 |
| 20260905222102 | 62 | 270 | 0.0 | 0.0 | 0.00 | 0.00 | 0.00 | 85 | 1014.4 |
| 20260905221602 | 62 | 270 | 0.0 | 0.0 | 0.00 | 0.00 | 0.00 | 85 | 1014.4 |
| 20260905221532 | 62 | 270 | 0.0 | 0.0 | 0.00 | 0.00 | 0.00 | 85 | 1014.0 |
| 20260905221103 | 62 | 270 | 0.0 | 0.0 | 0.00 | 0.00 | 0.00 | 85 | 1014.4 |
| 20260905220600 | 63 | 270 | 0.0 | 0.0 | 0.00 | 0.00 | 0.00 | 84 | 1014.3 |
| 20260905215557 | 63 | 270 | 0.0 | 0.0 | 0.00 | 0.00 | 0.00 | 81 | 1014.3 |
| 20260905215050 | 64 | 270 | 0.0 | 1.0 | 0.00 | 0.00 | 0.00 | 81 | 1014.3 |
| 20260905214545 | 64 | 270 | 0.0 | 1.0 | 0.00 | 0.00 | 0.00 | 82 | 1014.1 |
| 20260905214505 | 63 | 270 | 0.0 | 1.0 | 0.00 | 0.00 | 0.00 | 82 | 1013.7 |
| 20260905214044 | 64 | 270 | 0.0 | 0.0 | 0.00 | 0.00 | 0.00 | 81 | 1014.1 |
| 20260905213544 | 64 | 270 | 0.0 | 0.0 | 0.00 | 0.00 | 0.00 | 81 | 1014.1 |
| 20260905213105 | 64 | 270 | 0.0 | 0.0 | 0.00 | 0.00 | 0.00 | 79 | 1013.6 |
| 20260905213044 | 65 | 270 | 0.0 | 0.0 | 0.00 | 0.00 | 0.00 | 80 | 1014.0 |
| 20260905212545 | 65 | 270 | 0.0 | 0.0 | 0.00 | 0.00 | 0.00 | 79 | 1013.8 |
| 20260905212043 | 65 | 270 | 0.0 | 1.0 | 0.00 | 0.00 | 0.00 | 78 | 1013.8 |
| 20260905211649 | 64 | 270 | 0.0 | 1.0 | 0.00 | 0.00 | 0.00 | 77 | 1013.4 |
| 20260905211544 | 65 | 270 | 0.0 | 1.0 | 0.00 | 0.00 | 0.00 | 78 | 1013.7 |
| 20260905211044 | 65 | 270 | 0.0 | 1.0 | 0.00 | 0.00 | 0.00 | 78 | 1013.8 |
| 20260905210057 | 65 | 270 | 0.0 | 0.0 | 0.00 | 0.00 | 0.00 | 76 | 1013.2 |
| 20260905210045 | 65 | 270 | 0.0 | 0.0 | 0.00 | 0.00 | 0.00 | 76 | 1013.7 |
| 20260905205543 | 65 | 270 | 0.0 | 2.0 | 0.00 | 0.00 | 0.00 | 76 | 1013.7 |
| 20260905205043 | 65 | 270 | 0.0 | 2.0 | 0.00 | 0.00 | 0.00 | 75 | 1013.5 |
| 20260905204633 | 65 | 270 | 0.0 | 2.0 | 0.00 | 0.00 | 0.00 | 75 | 1013.1 |
| 20260905204541 | 65 | 270 | 0.0 | 2.0 | 0.00 | 0.00 | 0.00 | 77 | 1013.5 |
| 20260905204041 | 65 | 270 | 0.0 | 1.0 | 0.00 | 0.00 | 0.00 | 78 | 1013.5 |
| 20260905203539 | 66 | 270 | 0.0 | 0.0 | 0.00 | 0.00 | 0.00 | 78 | 1013.4 |
| 20260905203039 | 66 | 270 | 0.0 | 2.0 | 0.00 | 0.00 | 0.00 | 77 | 1013.3 |
| 20260905203022 | 65 | 270 | 0.0 | 2.0 | 0.00 | 0.00 | 0.00 | 77 | 1013.0 |
| 20260905202536 | 66 | 270 | 0.0 | 2.0 | 0.00 | 0.00 | 0.00 | 74 | 1013.2 |
| 20260905201615 | 67 | 270 | 0.0 | 2.0 | 0.00 | 0.00 | 0.00 | 72 | 1012.9 |
| 20260905201534 | 68 | 270 | 0.0 | 4.0 | 0.00 | 0.00 | 0.00 | 71 | 1013.2 |
| 20260905201032 | 69 | 270 | 1.0 | 5.0 | 0.00 | 0.00 | 0.00 | 72 | 1013.2 |
| 20260905200031 | 69 | 270 | 0.0 | 0.0 | 0.00 | 0.00 | 0.00 | 75 | 1013.1 |
| 20260905200015 | 69 | 270 | 0.0 | 0.0 | 0.00 | 0.00 | 0.00 | 76 | 1012.7 |
| 20260905195532 | 69 | 270 | 0.0 | 0.0 | 0.00 | 0.00 | 0.00 | 76 | 1013.0 |
| 20260905195031 | 69 | 270 | 0.0 | 0.0 | 0.00 | 0.00 | 0.00 | 75 | 1013.0 |
| 20260905194030 | 70 | 270 | 0.0 | 0.0 | 0.00 | 0.00 | 0.00 | 73 | 1013.0 |
| 20260905193530 | 71 | 270 | 0.0 | 0.0 | 0.00 | 0.00 | 0.00 | 74 | 1013.0 |
| 20260905193031 | 71 | 270 | 0.0 | 0.0 | 0.00 | 0.00 | 0.00 | 76 | 1013.0 |
| 20260905193010 | 70 | 270 | 0.0 | 0.0 | 0.00 | 0.00 | 0.00 | 75 | 1012.6 |
| 20260905192530 | 71 | 270 | 0.0 | 0.0 | 0.00 | 0.00 | 0.00 | 73 | 1012.9 |
| 20260905192029 | 70 | 270 | 0.0 | 0.0 | 0.00 | 0.00 | 0.00 | 75 | 1013.1 |
| 20260905191605 | 69 | 270 | 0.0 | 0.0 | 0.00 | 0.00 | 0.00 | 75 | 1012.7 |